Back to catalog

RASSVET-2 NO. 2

AliveCommunicationsSSO
NORAD 59780·PAYLOAD·🇷🇺 Russia
This satellite name has not been confirmed by official sources yet.

Launched May 16, 2024 from Plesetsk Cosmodrome

Loading…

Next Passes (next 24 hours)

TLE

FreshSource: Space-Track

Epoch: Sep 14, 2026, 22:47 UTC

1 59780U 24092H   26257.94943861  .00000128  00000-0  64492-4 0  9992
2 59780  98.6796  16.9296 0011299 309.0562  50.9615 14.31875461121747

Track RASSVET-2 NO. 2 in real time with AllMySat

Download on the App Store